Location: Baili�vre
(50.0696°N, 4.2409°E)
Time: 09:52:45
(UTC+00:00)

Cosmos 1271 Rocket - Pass Details

Date: 08 August 2020
Orbit: 499 x 545 km, 81.2° (Epoch: 20 September)

Event Time Altitude Azimuth Distance (km) Brightness Sun altitude
Rises 22:35:24 0° 356° (N) 2,611 7.6 -22.2°
Reaches altitude 10° 22:37:42 10° 7° (N) 1,726 6.2 -22.3°
Enters shadow 22:41:02 30° 68° (ENE) 931 4.0 -22.5°
